Location: Peebles
(55.6412°N, 3.1714°W)
Time: 17:12:31
(UTC+01:00)

USA 238 DEB - Pass Details

Date: 26 January 2022
Orbit: 969 x 1243 km, 63.4° (Epoch: 04 May)

Event Time Altitude Azimuth Distance (km) Brightness Sun altitude
Rises 19:17:03 0° 273° (W) 3,773 8.1 -22.5°
Reaches altitude 10° 19:19:44 10° 279° (W) 2,856 7.0 -22.9°
Maximum altitude 19:26:14 46° 353° (N) 1,431 4.4 -23.8°
Enters shadow 19:29:02 32° 43° (NE) 1,815 4.5 -24.2°
